Litchfield, MN

4:43 AM CST on December 10, 2019 (GMT -0600)
Litchfield Municipal

Weather History for KLJF - November, 2019

Change the Weather History Date:

Thursday, November 14, 2019

  Actual Average Record
Temperature  
Mean Temperature 24 °F -  
Max Temperature 35 °F 40 °F 74 °F (1990)
Min Temperature 14 °F 25 °F -2 °F (1959)
Degree Days  
Heating Degree Days 40    
Moisture  
Dew Point 19 °F    
Average Humidity 78    
Maximum Humidity 100    
Minimum Humidity 52    
Precipitation  
Precipitation 0.00 in - - ()
Sea Level Pressure  
Sea Level Pressure 30.19 in    
Wind  
Wind Speed 6 mph ()    
Max Wind Speed 13 mph    
Max Gust Speed 18 mph    
Visibility 10.0 miles    
Events      
Averages and records for this station are not official NWS values.
T = Trace of Precipitation, MM = Missing Value Source: Averaged Metar Reports

Daily Weather History Graph

Daily Weather History Graph

Search for Another Location

Airport or City:

Astronomy

Nov. 14, 2019 Rise Set
Actual Time 7:14 AM CST 4:50 PM CST
Civil Twilight 6:42 AM CST 5:21 PM CST
Nautical Twilight 6:07 AM CST 5:57 PM CST
Astronomical Twilight 5:32 AM CST 6:31 PM CST
Moon 6:32 PM CST (11/14) 9:13 AM CST (11/14)
Length of Visible Light 10h 39m
Length of Day
9h 35m
Waning Gibbous, 95% of the Moon is Illuminated
Nov 14
Waning Gibbous
Nov 19
Last Quarter
Nov 26
New
Dec 4
First Quarter
Dec 11
Full

Hourly Weather History & Observations

Time (CST) Temp. Windchill Dew Point Humidity Pressure Visibility Wind Dir Wind Speed Gust Speed Precip Events Conditions
12:18 AM 21.2 °F 8.9 °F 17.6 °F 86% 30.13 in 10.0 mi NNW 12.7 mph 18.4 mph N/A   Unknown
12:36 AM 21.2 °F 9.5 °F 17.6 °F 86% 30.13 in 10.0 mi NNW 11.5 mph - N/A   Unknown
12:56 AM 21.2 °F 10.1 °F 17.6 °F 86% 30.14 in 10.0 mi NNW 10.4 mph - N/A   Unknown
1:15 AM 21.2 °F 10.1 °F 15.8 °F 80% 30.14 in 10.0 mi NNW 10.4 mph - N/A   Unknown
1:16 AM 21.2 °F 10.1 °F 15.8 °F 80% 30.14 in 10.0 mi NNW 10.4 mph - N/A   Unknown
1:35 AM 21.2 °F 10.9 °F 15.8 °F 80% 30.14 in 10.0 mi NNW 9.2 mph - N/A   Unknown
1:57 AM 21.2 °F 11.7 °F 15.8 °F 80% 30.16 in 10.0 mi NW 8.1 mph - N/A   Unknown
2:16 AM 21.2 °F 11.7 °F 15.8 °F 80% 30.17 in 10.0 mi NW 8.1 mph - N/A   Unknown
2:35 AM 19.4 °F 7.9 °F 15.8 °F 86% 30.17 in 10.0 mi NNW 10.4 mph - N/A   Unknown
2:36 AM 19.4 °F 8.6 °F 15.8 °F 86% 30.17 in 10.0 mi NNW 9.2 mph - N/A   Unknown
2:55 AM 19.4 °F 8.6 °F 14.0 °F 80% 30.17 in 10.0 mi NNW 9.2 mph - N/A   Unknown
2:56 AM 19.4 °F 8.6 °F 15.8 °F 86% 30.17 in 10.0 mi NNW 9.2 mph - N/A   Unknown
3:18 AM 19.4 °F 8.6 °F 15.8 °F 86% 30.18 in 10.0 mi North 9.2 mph - N/A   Unknown
3:36 AM 19.4 °F 8.6 °F 15.8 °F 86% 30.19 in 10.0 mi NW 9.2 mph - N/A   Unknown
3:55 AM 19.4 °F 10.4 °F 14.0 °F 80% 30.19 in 10.0 mi NW 6.9 mph - N/A   Unknown
3:56 AM 19.4 °F 10.4 °F 14.0 °F 80% 30.19 in 10.0 mi WNW 6.9 mph - N/A   Unknown
4:15 AM 19.4 °F 10.4 °F 14.0 °F 80% 30.20 in 10.0 mi NW 6.9 mph - N/A   Unknown
4:16 AM 19.4 °F 10.4 °F 14.0 °F 80% 30.20 in 10.0 mi NW 6.9 mph - N/A   Unknown
4:35 AM 19.4 °F 8.6 °F 12.2 °F 74% 30.20 in 10.0 mi NW 9.2 mph - N/A   Unknown
4:57 AM 17.6 °F 9.3 °F 12.2 °F 79% 30.20 in 10.0 mi WNW 5.8 mph - N/A   Unknown
5:16 AM 17.6 °F 10.7 °F 12.2 °F 79% 30.21 in 10.0 mi WNW 4.6 mph - N/A   Unknown
5:35 AM 15.8 °F - 12.2 °F 86% 30.21 in 10.0 mi Calm Calm - N/A   Unknown
5:36 AM 15.8 °F - 12.2 °F 86% 30.21 in 10.0 mi Calm Calm - N/A   Unknown
5:55 AM 15.8 °F - 12.2 °F 86% 30.20 in 10.0 mi Calm Calm - N/A   Unknown
6:19 AM 14.0 °F - 12.2 °F 93% 30.22 in 10.0 mi Calm Calm - N/A   Unknown
6:36 AM 14.0 °F - 12.2 °F 93% 30.22 in 10.0 mi Calm Calm - N/A   Unknown
6:56 AM 15.8 °F 10.2 °F 12.2 °F 86% 30.23 in 10.0 mi West 3.5 mph - N/A   Unknown
7:15 AM 14.0 °F - 12.2 °F 93% 30.23 in 10.0 mi Calm Calm - N/A   Unknown
7:16 AM 14.0 °F - 12.2 °F 93% 30.23 in 10.0 mi Calm Calm - N/A   Unknown
7:35 AM 14.0 °F 8.2 °F 10.4 °F 86% 30.23 in 10.0 mi WSW 3.5 mph - N/A   Unknown
7:39 AM 15.8 °F - 12.2 °F 86% 30.23 in 10.0 mi Calm Calm - N/A   Unknown
7:58 AM 15.8 °F - 12.2 °F 86% 30.23 in 10.0 mi Calm Calm - N/A   Unknown
8:16 AM 17.6 °F 10.7 °F 12.2 °F 79% 30.24 in 10.0 mi West 4.6 mph - N/A   Unknown
8:35 AM 17.6 °F 9.3 °F 12.2 °F 79% 30.23 in 10.0 mi West 5.8 mph - N/A   Unknown
8:36 AM 17.6 °F 10.7 °F 12.2 °F 79% 30.23 in 10.0 mi West 4.6 mph - N/A   Unknown
8:55 AM 19.4 °F 10.4 °F 14.0 °F 80% 30.25 in 10.0 mi West 6.9 mph - N/A   Unknown
8:56 AM 19.4 °F 11.5 °F 14.0 °F 80% 30.25 in 10.0 mi West 5.8 mph - N/A   Unknown
9:19 AM 19.4 °F 11.5 °F 15.8 °F 86% 30.25 in 10.0 mi West 5.8 mph - N/A   Unknown
9:37 AM 21.2 °F 11.7 °F 15.8 °F 80% 30.24 in 10.0 mi West 8.1 mph - N/A   Unknown
9:55 AM 21.2 °F 10.9 °F 15.8 °F 80% 30.25 in 10.0 mi West 9.2 mph - N/A   Unknown
9:56 AM 21.2 °F 11.7 °F 15.8 °F 80% 30.25 in 10.0 mi West 8.1 mph - N/A   Unknown
10:15 AM 24.8 °F 16.9 °F 15.8 °F 69% 30.23 in 10.0 mi WSW 6.9 mph - N/A   Unknown
10:16 AM 24.8 °F 16.1 °F 15.8 °F 69% 30.23 in 10.0 mi WSW 8.1 mph - N/A   Unknown
10:35 AM 24.8 °F 16.9 °F 17.6 °F 74% 30.24 in 10.0 mi WSW 6.9 mph - N/A   Unknown
10:39 AM 24.8 °F 14.6 °F 17.6 °F 74% 30.24 in 10.0 mi West 10.4 mph - N/A   Unknown
10:57 AM 24.8 °F 15.3 °F 17.6 °F 74% 30.24 in 10.0 mi WSW 9.2 mph - N/A   Unknown
11:15 AM 26.6 °F 17.5 °F 17.6 °F 69% 30.24 in 10.0 mi West 9.2 mph - N/A   Unknown
11:35 AM 26.6 °F 17.5 °F 19.4 °F 74% 30.23 in 10.0 mi West 9.2 mph - N/A   Unknown
11:36 AM 26.6 °F 17.5 °F 19.4 °F 74% 30.23 in 10.0 mi West 9.2 mph - N/A   Unknown
11:55 AM 28.4 °F 19.1 °F 17.6 °F 64% 30.23 in 10.0 mi WSW 10.4 mph - N/A   Unknown
12:18 PM 28.4 °F 21.2 °F 17.6 °F 64% 30.22 in 10.0 mi WSW 6.9 mph - N/A   Unknown
12:36 PM 30.2 °F 22.6 °F 17.6 °F 60% 30.21 in 10.0 mi SW 8.1 mph - N/A   Unknown
12:56 PM 30.2 °F 22.6 °F 19.4 °F 64% 30.20 in 10.0 mi WSW 8.1 mph - N/A   Unknown
1:15 PM 32.0 °F 27.5 °F 19.4 °F 60% 30.20 in 10.0 mi SW 4.6 mph - N/A   Unknown
1:16 PM 32.0 °F 27.5 °F 19.4 °F 60% 30.19 in 10.0 mi SW 4.6 mph - N/A   Unknown
1:35 PM 32.0 °F 26.4 °F 19.4 °F 60% 30.19 in 10.0 mi SW 5.8 mph - N/A   Unknown
1:57 PM 33.8 °F 29.6 °F 19.4 °F 56% 30.18 in 10.0 mi SW 4.6 mph - N/A   Unknown
2:15 PM 33.8 °F 28.6 °F 19.4 °F 56% 30.17 in 10.0 mi SSW 5.8 mph - N/A   Unknown
2:35 PM 33.8 °F 27.7 °F 19.4 °F 56% 30.16 in 10.0 mi SSW 6.9 mph - N/A   Unknown
2:36 PM 33.8 °F 27.7 °F 19.4 °F 56% 30.16 in 10.0 mi SW 6.9 mph - N/A   Unknown
2:55 PM 35.6 °F 31.7 °F 19.4 °F 52% 30.15 in 10.0 mi SW 4.6 mph - N/A   Unknown
2:56 PM 35.6 °F 32.8 °F 19.4 °F 52% 30.15 in 10.0 mi SW 3.5 mph - N/A   Unknown
3:36 PM 35.6 °F 29.2 °F 19.4 °F 52% 30.15 in 10.0 mi SW 8.1 mph - N/A   Unknown
3:56 PM 35.6 °F 30.7 °F 19.4 °F 52% 30.14 in 10.0 mi SW 5.8 mph - N/A   Unknown
4:15 PM 35.6 °F 32.8 °F 21.2 °F 56% 30.14 in 10.0 mi SSW 3.5 mph - N/A   Unknown
4:35 PM 33.8 °F - 21.2 °F 60% 30.14 in 10.0 mi Calm Calm - N/A   Unknown
4:39 PM 33.8 °F - 21.2 °F 60% 30.14 in 10.0 mi Calm Calm - N/A   Unknown
4:57 PM 32.0 °F 28.7 °F 21.2 °F 64% 30.13 in 10.0 mi SSW 3.5 mph - N/A   Unknown
5:15 PM 32.0 °F - 21.2 °F 64% 30.13 in 10.0 mi Calm Calm - N/A   Unknown
5:35 PM 32.0 °F 28.7 °F 21.2 °F 64% 30.14 in 10.0 mi SSW 3.5 mph - N/A   Unknown
5:36 PM 32.0 °F 28.7 °F 21.2 °F 64% 30.14 in 10.0 mi SSW 3.5 mph - N/A   Unknown
5:55 PM 33.8 °F 29.6 °F 24.8 °F 70% 30.13 in 10.0 mi SSW 4.6 mph - N/A   Unknown
6:18 PM 33.8 °F 28.6 °F 26.6 °F 75% 30.13 in 10.0 mi SW 5.8 mph - N/A   Unknown
6:37 PM 33.8 °F 29.6 °F 26.6 °F 75% 30.14 in 10.0 mi SW 4.6 mph - N/A   Unknown
6:56 PM 33.8 °F 28.6 °F 26.6 °F 75% 30.14 in 10.0 mi SW 5.8 mph - N/A   Unknown
7:15 PM 33.8 °F 29.6 °F 26.6 °F 75% 30.15 in 10.0 mi SW 4.6 mph - N/A   Unknown
7:35 PM 33.8 °F 28.6 °F 26.6 °F 75% 30.15 in 10.0 mi WSW 5.8 mph - N/A   Unknown
7:39 PM 33.8 °F 28.6 °F 28.4 °F 81% 30.14 in 10.0 mi WSW 5.8 mph - N/A   Unknown
7:58 PM 33.8 °F 27.7 °F 28.4 °F 81% 30.14 in 10.0 mi SW 6.9 mph - N/A   Unknown
8:16 PM 33.8 °F 30.8 °F 28.4 °F 81% 30.14 in 10.0 mi SW 3.5 mph - N/A   Unknown
8:35 PM 33.8 °F 29.6 °F 28.4 °F 81% 30.14 in 10.0 mi WSW 4.6 mph - N/A   Unknown
8:36 PM 33.8 °F 29.6 °F 28.4 °F 81% 30.14 in 10.0 mi WSW 4.6 mph - N/A   Unknown
8:59 PM 32.0 °F 27.5 °F 28.4 °F 87% 30.16 in 10.0 mi West 4.6 mph - N/A   Unknown
9:17 PM 32.0 °F 28.7 °F 28.4 °F 87% 30.16 in 10.0 mi West 3.5 mph - N/A   Unknown
9:36 PM 30.2 °F 26.7 °F 28.4 °F 93% 30.17 in 10.0 mi West 3.5 mph - N/A   Unknown
9:55 PM 30.2 °F 25.4 °F 28.4 °F 93% 30.17 in 10.0 mi WSW 4.6 mph - N/A   Unknown
9:56 PM 30.2 °F 25.4 °F 28.4 °F 93% 30.17 in 10.0 mi WSW 4.6 mph - N/A   Unknown
10:15 PM 30.2 °F 26.7 °F 28.4 °F 93% 30.18 in 10.0 mi WSW 3.5 mph - N/A   Unknown
10:16 PM 30.2 °F 26.7 °F 28.4 °F 93% 30.18 in 10.0 mi WSW 3.5 mph - N/A   Unknown
10:38 PM 30.2 °F 26.7 °F 30.2 °F 100% 30.19 in 10.0 mi West 3.5 mph - N/A   Unknown
10:56 PM 30.2 °F 26.7 °F 30.2 °F 100% 30.19 in 10.0 mi West 3.5 mph - N/A   Unknown
11:16 PM 30.2 °F 25.4 °F 30.2 °F 100% 30.19 in 10.0 mi West 4.6 mph - N/A   Unknown
11:35 PM 30.2 °F 24.3 °F 30.2 °F 100% 30.19 in 10.0 mi West 5.8 mph - N/A   Unknown
11:36 PM 30.2 °F 24.3 °F 30.2 °F 100% 30.19 in 10.0 mi West 5.8 mph - N/A   Unknown
11:55 PM 30.2 °F 25.4 °F 30.2 °F 100% 30.21 in 10.0 mi West 4.6 mph - N/A   Unknown